UAE3ED OJAI-EDDP

Flight info

Callsign UAE3ED
Flight time N/A
Altitude 36000
Route MUVIN L53 SUVAS N128 OTHON UN128 VAXOS/N0472F380 UN128 PEREN UL863 EVIVI L863 OKANA DCT TONDO DCT BEGLA DCT LOKVU DCT LEGAZ DCT BEFRE T204 IVDUF/N0458F300 T951 YAWOY YAWOY1R
Aircraft A339/H-SADE1E2E3GHIJ3J5M1P2RWXY/LB2D1

Departure

Time 2026-04-30 21:29
Airport Queen Alia International Airport (OJAI)

Arrival

Time N/A
Airport Leipzig/Halle Airport (EDDP)
Time Latitude Longitude Altitude Speed Heading
2026-04-30 21:09 31.72111 35.98999 2381 ft 0 kts 356°
2026-04-30 21:18 31.72096 35.99000 2380 ft 3 kts 356°
2026-04-30 21:18 31.72073 35.99002 2384 ft 5 kts 357°
2026-04-30 21:19 31.72048 35.99007 2388 ft 3 kts 288°
2026-04-30 21:19 31.72045 35.99036 2383 ft 4 kts 267°
2026-04-30 21:19 31.72044 35.99034 2380 ft 0 kts 262°
2026-04-30 21:20 31.72045 35.99059 2383 ft 0 kts 263°
2026-04-30 21:22 31.72020 35.98958 2379 ft 11 kts 259°
2026-04-30 21:23 31.72000 35.98866 2378 ft 13 kts 239°
2026-04-30 21:23 31.71940 35.98809 2377 ft 7 kts 191°
2026-04-30 21:23 31.71872 35.98928 2376 ft 16 kts 123°
2026-04-30 21:24 31.71866 35.99061 2376 ft 18 kts 82°
2026-04-30 21:24 31.71887 35.99201 2377 ft 17 kts 79°
2026-04-30 21:24 31.71910 35.99346 2377 ft 19 kts 79°
2026-04-30 21:24 31.71936 35.99511 2378 ft 22 kts 81°
2026-04-30 21:25 31.71988 35.99896 2379 ft 26 kts 79°
2026-04-30 21:25 31.72020 36.00112 2379 ft 28 kts 80°
2026-04-30 21:25 31.72054 36.00342 2380 ft 29 kts 79°
2026-04-30 21:26 31.72124 36.00832 2381 ft 28 kts 80°
2026-04-30 21:26 31.72158 36.01063 2381 ft 30 kts 80°
2026-04-30 21:27 31.72227 36.01548 2382 ft 29 kts 80°
2026-04-30 21:27 31.72246 36.01717 2382 ft 17 kts 94°
2026-04-30 21:27 31.72193 36.01786 2382 ft 8 kts 161°
2026-04-30 21:28 31.72039 36.01825 2383 ft 14 kts 180°
2026-04-30 21:28 31.71976 36.01754 2384 ft 12 kts 258°
2026-04-30 21:28 31.71939 36.01523 2382 ft 17 kts 260°
2026-04-30 21:29 31.71896 36.01216 2380 ft 86 kts 261°
2026-04-30 21:29 31.71281 35.97098 4268 ft 181 kts 260°
2026-04-30 21:30 31.70778 35.93826 5891 ft 227 kts 259°
2026-04-30 21:31 31.70223 35.88283 7480 ft 282 kts 265°
2026-04-30 21:31 31.69937 35.83634 9348 ft 289 kts 263°
2026-04-30 21:32 31.69552 35.78088 11368 ft 295 kts 261°
2026-04-30 21:32 31.69383 35.75676 11738 ft 297 kts 262°
2026-04-30 21:32 31.69479 35.74027 11869 ft 304 kts 277°
2026-04-30 21:32 31.70745 35.71066 11976 ft 315 kts 308°
2026-04-30 21:33 31.71861 35.69908 11984 ft 319 kts 321°
2026-04-30 21:33 31.75710 35.67264 11970 ft 321 kts 329°
2026-04-30 21:33 31.77622 35.65926 11963 ft 319 kts 320°
2026-04-30 21:34 31.79105 35.64040 11968 ft 312 kts 298°
2026-04-30 21:34 31.80507 35.59173 12059 ft 341 kts 281°
2026-04-30 21:34 31.81155 35.56421 12520 ft 352 kts 282°
2026-04-30 21:35 31.81841 35.53645 13230 ft 355 kts 282°
2026-04-30 21:35 31.82550 35.50849 13943 ft 358 kts 282°
2026-04-30 21:35 31.83297 35.48059 14614 ft 358 kts 284°
2026-04-30 21:35 31.84129 35.45294 15282 ft 359 kts 285°
2026-04-30 21:36 31.84988 35.42534 15957 ft 360 kts 286°
2026-04-30 21:36 31.85843 35.39772 16683 ft 360 kts 286°
2026-04-30 21:37 31.88368 35.31408 17985 ft 362 kts 285°
2026-04-30 21:37 31.89203 35.28608 18016 ft 363 kts 285°
2026-04-30 21:37 31.90039 35.25803 18020 ft 364 kts 285°
2026-04-30 21:37 31.90880 35.22974 18467 ft 367 kts 285°
2026-04-30 21:38 31.91711 35.20159 19336 ft 363 kts 286°
2026-04-30 21:38 31.92537 35.17348 20078 ft 364 kts 286°
2026-04-30 21:38 31.93365 35.14523 20803 ft 366 kts 286°
2026-04-30 21:38 31.94199 35.11692 21565 ft 366 kts 287°
2026-04-30 21:39 31.95037 35.08853 22301 ft 368 kts 287°
2026-04-30 21:39 31.95880 35.05995 23022 ft 371 kts 287°
2026-04-30 21:39 31.96728 35.03119 23721 ft 373 kts 288°
2026-04-30 21:39 31.97581 35.00227 24330 ft 375 kts 288°
2026-04-30 21:40 31.98440 34.97313 24931 ft 378 kts 288°
2026-04-30 21:40 31.99302 34.94384 25542 ft 380 kts 288°
2026-04-30 21:40 32.00169 34.91429 26108 ft 383 kts 288°
2026-04-30 21:40 32.00933 34.88416 26687 ft 385 kts 283°
2026-04-30 21:41 32.01414 34.85305 27265 ft 387 kts 277°
2026-04-30 21:41 32.01627 34.82132 27822 ft 390 kts 274°
2026-04-30 21:41 32.01788 34.78932 28352 ft 393 kts 274°
2026-04-30 21:41 32.01962 34.75706 28883 ft 395 kts 274°
2026-04-30 21:42 32.02141 34.72465 29404 ft 398 kts 275°
2026-04-30 21:42 32.02323 34.69196 29912 ft 401 kts 275°
2026-04-30 21:42 32.02503 34.65951 30374 ft 403 kts 275°
2026-04-30 21:42 32.02685 34.62648 30864 ft 405 kts 275°
2026-04-30 21:43 32.02865 34.59333 31343 ft 407 kts 275°
2026-04-30 21:43 32.03045 34.55999 31810 ft 409 kts 275°
2026-04-30 21:43 32.03225 34.52645 32263 ft 411 kts 275°
2026-04-30 21:43 32.03408 34.49282 32680 ft 413 kts 275°
2026-04-30 21:44 32.03600 34.45897 33030 ft 414 kts 275°
2026-04-30 21:44 32.03794 34.42502 33323 ft 416 kts 275°
2026-04-30 21:44 32.03987 34.39096 33590 ft 417 kts 275°
2026-04-30 21:44 32.04178 34.35686 33904 ft 416 kts 275°
2026-04-30 21:45 32.04368 34.32287 34217 ft 415 kts 275°
2026-04-30 21:45 32.04560 34.28893 34455 ft 415 kts 276°
2026-04-30 21:45 32.04981 34.25537 34692 ft 414 kts 282°
2026-04-30 21:45 32.05766 34.22269 34928 ft 415 kts 288°
2026-04-30 21:46 32.06891 34.19136 35175 ft 416 kts 294°
2026-04-30 21:46 32.08330 34.16166 35420 ft 418 kts 299°
2026-04-30 21:46 32.09843 34.13246 35655 ft 418 kts 298°
2026-04-30 21:46 32.11344 34.10311 35895 ft 418 kts 298°
2026-04-30 21:47 32.12841 34.07368 36146 ft 418 kts 298°
2026-04-30 21:47 32.14333 34.04425 36370 ft 418 kts 298°
2026-04-30 21:47 32.15826 34.01477 36620 ft 418 kts 298°
2026-04-30 21:47 32.17359 33.98558 36854 ft 420 kts 301°
2026-04-30 21:48 32.19058 33.95750 37091 ft 420 kts 302°
2026-04-30 21:48 32.20759 33.92946 37330 ft 421 kts 302°
2026-04-30 21:48 32.22462 33.90126 37563 ft 421 kts 302°
2026-04-30 21:48 32.24159 33.87309 37801 ft 421 kts 302°
2026-04-30 21:49 32.25856 33.84491 38043 ft 421 kts 302°
2026-04-30 21:49 32.27554 33.81668 38281 ft 421 kts 301°
2026-04-30 21:49 32.29251 33.78844 38510 ft 422 kts 301°
2026-04-30 21:49 32.30949 33.76018 38735 ft 422 kts 301°
2026-04-30 21:50 32.32647 33.73189 38928 ft 422 kts 301°
2026-04-30 21:50 32.34348 33.70354 39010 ft 422 kts 301°
2026-04-30 21:50 32.37729 33.64710 39015 ft 421 kts 301°
2026-04-30 21:51 32.41092 33.59089 39015 ft 421 kts 301°
2026-04-30 21:51 32.44471 33.53432 39016 ft 421 kts 301°
2026-04-30 21:52 32.47851 33.47765 39015 ft 421 kts 301°
2026-04-30 21:52 32.51228 33.42094 39016 ft 421 kts 301°
2026-04-30 21:53 32.54605 33.36415 39016 ft 422 kts 301°
2026-04-30 21:53 32.57979 33.30732 39019 ft 421 kts 301°
2026-04-30 21:54 32.61352 33.25043 39016 ft 422 kts 301°
2026-04-30 21:54 32.64720 33.19354 39022 ft 421 kts 301°
2026-04-30 21:55 32.68086 33.13658 39017 ft 421 kts 301°
2026-04-30 21:55 32.71446 33.07965 39017 ft 421 kts 301°
2026-04-30 21:56 32.74800 33.02272 39018 ft 421 kts 301°
2026-04-30 21:56 32.78151 32.96577 39017 ft 420 kts 301°
2026-04-30 21:57 32.81500 32.90874 39018 ft 420 kts 301°
2026-04-30 21:57 32.84821 32.85212 39003 ft 420 kts 301°
2026-04-30 21:58 32.88616 32.79910 39026 ft 427 kts 314°
2026-04-30 21:58 32.93113 32.75297 39009 ft 427 kts 314°
2026-04-30 21:59 32.97648 32.70720 39012 ft 427 kts 315°
2026-04-30 22:00 33.04479 32.63880 39014 ft 427 kts 315°
2026-04-30 22:00 33.11303 32.57036 39024 ft 427 kts 315°
2026-04-30 22:01 33.15849 32.52467 39018 ft 427 kts 315°
2026-04-30 22:01 33.20390 32.47897 39017 ft 427 kts 315°
2026-04-30 22:02 33.24924 32.43329 39016 ft 426 kts 315°
2026-04-30 22:02 33.29456 32.38755 39013 ft 426 kts 315°
2026-04-30 22:03 33.33981 32.34181 39020 ft 426 kts 315°
2026-04-30 22:03 33.38503 32.29600 39014 ft 426 kts 315°
2026-04-30 22:04 33.43017 32.25021 39017 ft 425 kts 315°
2026-04-30 22:05 33.47798 32.20164 39016 ft 425 kts 314°
2026-04-30 22:05 33.50427 32.17490 39016 ft 426 kts 314°
2026-04-30 22:06 33.54946 32.12890 39012 ft 426 kts 314°
2026-04-30 22:06 33.60697 32.07026 39013 ft 426 kts 314°
2026-04-30 22:07 33.65213 32.02412 39016 ft 426 kts 314°
2026-04-30 22:07 33.69729 31.97793 39015 ft 427 kts 314°
2026-04-30 22:08 33.74248 31.93164 39015 ft 427 kts 314°
2026-04-30 22:08 33.78766 31.88529 39017 ft 427 kts 314°
2026-04-30 22:09 33.83282 31.83890 38999 ft 427 kts 314°
2026-04-30 22:09 33.87795 31.79246 39005 ft 427 kts 314°
2026-04-30 22:10 33.92309 31.74595 39010 ft 427 kts 314°
2026-04-30 22:10 33.96825 31.69936 39011 ft 427 kts 314°
2026-04-30 22:11 34.03599 31.62933 39010 ft 428 kts 314°
2026-04-30 22:12 34.08085 31.58288 39010 ft 428 kts 314°
2026-04-30 22:12 34.12601 31.53604 39009 ft 428 kts 314°
2026-04-30 22:13 34.17118 31.48912 39009 ft 429 kts 314°
2026-04-30 22:13 34.21505 31.44349 39007 ft 429 kts 314°
2026-04-30 22:14 34.22480 31.43335 39006 ft 429 kts 314°
2026-04-30 22:15 34.23955 31.41798 39005 ft 429 kts 314°
2026-04-30 22:15 34.26164 31.39496 39004 ft 429 kts 314°
2026-04-30 22:16 34.30683 31.34781 39002 ft 429 kts 314°
2026-04-30 22:17 34.39727 31.25325 39004 ft 430 kts 314°
2026-04-30 22:17 34.46515 31.18209 39006 ft 431 kts 314°
2026-04-30 22:18 34.53313 31.11067 39008 ft 431 kts 314°
2026-04-30 22:19 34.60119 31.03900 39007 ft 432 kts 315°
2026-04-30 22:20 34.66928 30.96715 39009 ft 433 kts 315°
2026-04-30 22:20 34.73715 30.89537 39009 ft 433 kts 315°
2026-04-30 22:21 34.78260 30.84720 39008 ft 434 kts 315°
2026-04-30 22:21 34.82068 30.80679 39006 ft 434 kts 315°
2026-04-30 22:22 34.86615 30.75847 39008 ft 434 kts 315°
2026-04-30 22:22 34.91161 30.71010 39008 ft 434 kts 315°
2026-04-30 22:23 34.95708 30.66163 39007 ft 434 kts 315°
2026-04-30 22:23 35.00255 30.61308 39008 ft 435 kts 315°
2026-04-30 22:24 35.04805 30.56443 39010 ft 435 kts 315°
2026-04-30 22:24 35.09352 30.51575 39012 ft 435 kts 315°
2026-04-30 22:25 35.13899 30.46698 39006 ft 435 kts 315°
2026-04-30 22:25 35.18445 30.41815 39004 ft 435 kts 315°
2026-04-30 22:26 35.25234 30.34509 39002 ft 435 kts 315°
2026-04-30 22:27 35.29778 30.29610 39007 ft 435 kts 315°
2026-04-30 22:27 35.36596 30.22243 39003 ft 436 kts 315°
2026-04-30 22:28 35.43445 30.14825 39005 ft 436 kts 315°
2026-04-30 22:29 35.52541 30.04948 39003 ft 437 kts 315°
2026-04-30 22:31 35.68420 29.87629 39006 ft 437 kts 315°
2026-04-30 22:32 35.79771 29.75190 38991 ft 437 kts 315°
2026-04-30 22:33 35.91101 29.62724 38997 ft 437 kts 315°
2026-04-30 22:35 36.02423 29.50217 38999 ft 437 kts 315°
2026-04-30 22:36 36.13697 29.37713 39002 ft 437 kts 315°
2026-04-30 22:37 36.22741 29.27658 39000 ft 437 kts 315°
2026-04-30 22:38 36.31769 29.17563 39000 ft 437 kts 315°
2026-04-30 22:39 36.38544 29.09976 38998 ft 437 kts 315°
2026-04-30 22:40 36.52085 28.94755 38997 ft 438 kts 315°
2026-04-30 22:41 36.63367 28.82016 38995 ft 439 kts 315°
2026-04-30 22:43 36.76875 28.66693 38995 ft 439 kts 315°
2026-04-30 22:44 36.85885 28.56430 39002 ft 439 kts 314°
2026-04-30 22:45 36.99385 28.40990 39019 ft 439 kts 315°
2026-04-30 22:47 37.12879 28.25478 39027 ft 439 kts 314°
2026-04-30 22:48 37.21866 28.15103 39030 ft 439 kts 314°
2026-04-30 22:49 37.35321 27.99504 39020 ft 438 kts 315°
2026-04-30 22:51 37.48715 27.83896 39017 ft 439 kts 314°
2026-04-30 22:52 37.55428 27.76043 39003 ft 439 kts 314°
2026-04-30 22:53 37.64363 27.65561 38995 ft 439 kts 314°
2026-04-30 22:53 37.71061 27.57677 38996 ft 439 kts 314°
2026-04-30 22:55 37.82213 27.44509 38991 ft 439 kts 314°
2026-04-30 22:56 37.91121 27.33947 38986 ft 438 kts 314°
2026-04-30 22:57 38.02236 27.20718 38993 ft 438 kts 314°
2026-04-30 22:58 38.11112 27.10113 38992 ft 438 kts 314°
2026-04-30 22:59 38.24403 26.94162 38992 ft 438 kts 314°